SCD 1 1 22490U 93009B 26106.07301709 .00000352 00000+0 45075-4 0 9994 2 22490 24.9687 231.0866 0041790 200.3716 315.4709 14.46092134752110 TECHSAT 1B (GO-32) 1 25397U 98043D 26106.25028671 .00000029 00000+0 32542-4 0 9996 2 25397 99.0059 97.4532 0002104 59.3733 300.7653 14.24415989442514 SCD 2 1 25504U 98060A 26106.29909539 .00000316 00000+0 37277-4 0 9999 2 25504 24.9947 93.8126 0016739 188.2083 195.0257 14.45501891451364 DLR-TUBSAT 1 25757U 99029B 26106.22288514 .00000031 00000+0 19439-4 0 9995 2 25757 98.6691 99.6934 0014286 173.9107 186.2264 14.52410748424258 TERRA 1 25994U 99068A 26106.24686003 .00000228 00000+0 55415-4 0 9990 2 25994 97.9518 158.2321 0003557 75.8381 353.3655 14.61053523400569 MAROC-TUBSAT 1 27004U 01056D 26106.25461815 -.00000028 00000+0 20968-4 0 9991 2 27004 99.8052 281.9514 0019152 302.8157 240.1056 13.70259841217707 AQUA 1 27424U 02022A 26106.26552981 .00000480 00000+0 10549-3 0 9991 2 27424 98.4234 74.3333 0001820 106.0204 357.3001 14.62060033274229 IRS-P6 (RESOURCESAT-1) 1 28051U 03046A 26106.35057389 .00000302 00000+0 11494-3 0 9990 2 28051 98.1978 145.8756 0064439 166.6610 204.3660 14.36139172171656 SHIYAN-1 (SY-1) 1 28220U 04012A 26106.17136695 .00007367 00000+0 23986-3 0 9997 2 28220 97.8717 180.2871 0005016 227.1872 132.8947 15.32174826201593 AURA 1 28376U 04026A 26106.22281760 .00000472 00000+0 10548-3 0 9994 2 28376 98.3370 62.1865 0001603 90.5671 269.5713 14.61231642157167 IRS-P5 (CARTOSAT-1) 1 28649U 05017A 26106.06653120 .00000686 00000+0 74903-4 0 9996 2 28649 97.5367 131.9410 0000603 99.8550 260.2737 14.90888888134560 SINAH 1 1 28893U 05043D 26106.27459574 .00000179 00000+0 43369-4 0 9995 2 28893 98.2758 240.2656 0015719 109.1368 251.1538 14.64113936 91460 RESURS-DK 1 1 29228U 06021A 26106.22318604 .00001134 00000+0 70288-4 0 9990 2 29228 69.9297 139.9207 0002509 2.7049 357.4130 15.12951145 93207 ARIRANG-2 (KOMPSAT-2) 1 29268U 06031A 26106.34084611 .00000061 00000+0 19894-4 0 9990 2 29268 97.8309 293.7782 0012983 270.5364 212.6015 14.64619959 52427 LAPAN-TUBSAT 1 29709U 07001A 26106.23473471 .00000487 00000+0 62424-4 0 9991 2 29709 98.1344 104.0671 0013077 33.2513 326.9521 14.85887409 41953 HAIYANG-1B 1 31113U 07010A 26106.19527054 .00000052 00000+0 35727-4 0 9999 2 31113 98.3471 90.4560 0014155 29.8951 330.3038 14.31011374991764 COSMO-SKYMED 1 1 31598U 07023A 26106.23752113 .00000939 00000+0 87242-4 0 9994 2 31598 97.8878 297.5788 0001331 85.6548 274.4825 14.96801393 20520 TERRASAR-X 1 31698U 07026A 26105.41925142 -.00000064 00000+0 16024-6 0 9993 2 31698 97.4452 114.0204 0001828 81.1580 278.9862 15.19152539 43699 WORLDVIEW-1 (WV-1) 1 32060U 07041A 26106.25831194 .00003551 00000+0 14863-3 0 9999 2 32060 97.3868 226.8720 0001119 257.4246 102.6866 15.24204080 33442 YAOGAN-3 1 32289U 07055A 26106.30447505 .00001584 00000+0 16772-3 0 9997 2 32289 97.8217 136.7878 0001359 90.6672 269.4702 14.90546877996643 COSMO-SKYMED 2 1 32376U 07059A 26106.32140620 .00000218 00000+0 33963-4 0 9993 2 32376 97.8883 290.8151 0001384 91.5611 268.5761 14.82151802992839 RADARSAT-2 1 32382U 07061A 26106.32350091 .00000212 00000+0 99229-4 0 9999 2 32382 98.5803 114.1352 0001281 85.0004 275.1325 14.29981307957111 CARTOSAT-2A 1 32783U 08021A 26106.28602778 -.00000138 00000+0 -11794-4 0 9998 2 32783 97.7703 157.0915 0010809 318.8032 41.2363 14.79160150969657 HUANJING 1A (HJ-1A) 1 33320U 08041A 26106.26482575 .00001244 00000+0 15577-3 0 9996 2 33320 97.6661 94.5138 0018761 347.2015 12.8721 14.83846800949222 HUANJING 1B (HJ-1B) 1 33321U 08041B 26106.27415323 .00001160 00000+0 14670-3 0 9995 2 33321 97.6503 97.8783 0037351 28.9026 331.4247 14.83204858949236 GEOEYE 1 1 33331U 08042A 26106.25906800 .00000233 00000+0 52715-4 0 9993 2 33331 98.1256 180.9705 0002938 248.4016 111.6874 14.64667292941080 THEOS 1 33396U 08049A 26106.31982903 -.00000261 00000+0 -10240-3 0 9995 2 33396 98.5632 165.5966 0001270 95.8894 264.2428 14.20123121909182 COSMO-SKYMED 3 1 33412U 08054A 26106.24946579 .00001192 00000+0 84797-4 0 9992 2 33412 97.8374 323.7846 0017365 113.6200 246.6852 15.06558438947616 YAOGAN-4 1 33446U 08061A 26106.23351630 .00000563 00000+0 75727-4 0 9998 2 33446 97.9282 40.2174 0012791 273.3459 86.6291 14.83083611936487 GOSAT (IBUKI) 1 33492U 09002A 26106.29720987 .00000396 00000+0 78359-4 0 9994 2 33492 98.0809 218.1779 0001131 105.9286 254.2043 14.67541508922384 DEIMOS-1 1 35681U 09041A 26106.25891369 .00000001 00000+0 71279-5 0 9996 2 35681 97.7322 266.1968 0002498 61.9869 298.1594 14.75170172897754 DUBAISAT-1 1 35682U 09041B 26106.29175411 .00000618 00000+0 99437-4 0 9993 2 35682 97.9948 240.2647 0009087 269.1678 90.8489 14.75007291895972 OCEANSAT-2 1 35931U 09051A 26106.29250544 -.00000214 00000+0 -12053-3 0 9994 2 35931 98.2311 99.3346 0016731 51.6509 308.6159 13.99653278870678 WORLDVIEW-2 (WV-2) 1 35946U 09055A 26106.23322379 .00000069 00000+0 37193-4 0 9993 2 35946 98.4699 180.5566 0005229 55.7988 304.3694 14.37925551866747 SMOS 1 36036U 09059A 26105.99022731 .00000124 00000+0 53433-4 0 9996 2 36036 98.4436 294.2325 0001114 102.4106 257.7207 14.39785744864507 YAOGAN-7 1 36110U 09069A 26106.27764083 .00000283 00000+0 46504-4 0 9992 2 36110 98.0150 352.5034 0023380 237.3580 122.5375 14.77948219880487 TANDEM-X 1 36605U 10030A 26105.48511850 -.00000095 00000+0 -13240-5 0 9990 2 36605 97.4461 114.0851 0001857 96.2128 263.9318 15.19152466877129 CARTOSAT-2B 1 36795U 10035A 26106.28571552 -.00000147 00000+0 -12895-4 0 9991 2 36795 98.0022 157.2111 0012051 36.8819 323.3219 14.78651077850704 YAOGAN-10 1 36834U 10038A 26106.31491958 .00001268 00000+0 15442-3 0 9996 2 36834 97.9036 130.2063 0001485 86.6893 35.6036 14.85159809848028 COSMO-SKYMED 4 1 37216U 10060A 26106.26656242 .00000221 00000+0 34378-4 0 9997 2 37216 97.8881 290.7619 0001468 80.0517 280.0862 14.82147431835395 RESOURCESAT-2 1 37387U 11015A 26106.22262319 -.00000235 00000+0 -86760-4 0 9990 2 37387 98.7687 174.0816 0012389 78.6316 281.6253 14.21603503777379 HAIYANG-2A 1 37781U 11043A 26106.27138534 .00000078 00000+0 12485-3 0 9990 2 37781 99.3413 110.2273 0004798 210.6701 149.4169 13.76419767738146 RASAT 1 37791U 11044D 26106.29913950 -.00000023 00000+0 46000-5 0 9990 2 37791 98.0549 198.6509 0021327 32.0686 60.8679 14.68106830784105 SRMSAT 1 37841U 11058D 26106.23675399 .00000363 00000+0 52901-4 0 9999 2 37841 19.9721 74.4374 0011612 241.6849 237.7724 14.11560608749057 PLEIADES 1A 1 38012U 11076F 26106.25270193 -.00000147 00000+0 -21769-4 0 9995 2 38012 98.1998 182.1809 0001186 73.7364 19.1661 14.58530791762962 ZIYUAN 1-02C (ZY 1-02C) 1 38038U 11079A 26106.30038762 .00000210 00000+0 83392-4 0 9995 2 38038 98.4114 174.8933 0007482 126.7687 320.3508 14.38162348750311 ARIRANG-3 (KOMPSAT-3) 1 38338U 12025B 26106.30710383 .00000242 00000+0 57333-4 0 9997 2 38338 98.1122 64.8566 0004461 321.3178 38.7703 14.62150571742301 EXACTVIEW-1 (ADS-1B) 1 38709U 12039C 26106.31019295 .00000061 00000+0 45917-4 0 9993 2 38709 98.9685 222.3292 0010641 355.6039 4.5045 14.24965759713897 SPOT 6 1 38755U 12047A 26106.31855818 .00000142 00000+0 40548-4 0 9997 2 38755 98.2161 174.3403 0001301 85.6115 274.5233 14.58517076724036 PLEIADES 1B 1 39019U 12068A 26106.26954735 -.00000001 00000+0 95395-5 0 9992 2 39019 98.1969 182.1675 0001126 81.9101 278.2226 14.58557448711825 GOKTURK 2 1 39030U 12073A 26106.30181233 -.00000214 00000+0 -24552-4 0 9994 2 39030 97.6864 306.8231 0001575 108.1266 252.0116 14.75480396715380 LANDSAT 8 1 39084U 13008A 26106.22241151 .00000196 00000+0 53600-4 0 9992 2 39084 98.1861 177.3194 0001176 95.2651 264.8682 14.57118367688870 SARAL 1 39086U 13009A 26106.24042251 .00000028 00000+0 26427-4 0 9998 2 39086 98.5565 293.5888 0002976 101.3967 258.7552 14.32840549686734 GAOFEN-1 1 39150U 13018A 26106.32694332 .00000064 00000+0 16433-4 0 9998 2 39150 97.9126 179.6430 0018622 104.2861 256.0418 14.76542723699118 VNREDSAT 1 1 39160U 13021B 26106.27164402 .00000322 00000+0 68719-4 0 9998 2 39160 97.9145 162.0457 0001287 86.1639 273.9712 14.64942495691221 ARIRANG-5 (KOMPSAT-5) 1 39227U 13042A 26106.31324118 .00000647 00000+0 50609-4 0 9991 2 39227 97.6219 293.8786 0003593 18.3875 341.7481 15.04479726694556 SKYSAT-A 1 39418U 13066C 26106.08105645 .00001924 00000+0 11318-3 0 9997 2 39418 97.3879 157.4536 0022116 165.1174 195.0713 15.12615099679094 DUBAISAT-2 1 39419U 13066D 26106.24135895 .00002655 00000+0 16837-3 0 9999 2 39419 97.4553 98.0373 0009544 243.2998 116.7255 15.09732463677041 GPM-CORE 1 39574U 14009C 26106.19462358 .00004506 00000+0 10179-3 0 9990 2 39574 64.9716 155.8501 0012496 258.2605 101.7134 15.44546676688230 SENTINEL-1A 1 39634U 14016A 26106.31037859 -.00000083 00000+0 -78065-5 0 9991 2 39634 98.1803 114.7411 0001401 85.5556 274.5803 14.59198385640995 KAZEOSAT 1 1 39731U 14024A 26106.26882235 -.00000129 00000+0 -26346-4 0 9993 2 39731 98.3233 180.2486 0001328 103.0240 257.1099 14.42054259629631 ALOS-2 1 39766U 14029A 26106.45797263 .00000022 00000+0 98653-5 0 9994 2 39766 97.9203 204.5066 0001765 97.6423 262.4989 14.79453460642450 KAZEOSAT 2 1 40010U 14033A 26106.25695495 .00000725 00000+0 90027-4 0 9991 2 40010 97.5460 309.1266 0009032 154.0987 206.0683 14.85397310639760 HODOYOSHI-4 1 40011U 14033B 26106.23727712 .00000183 00000+0 25533-4 0 9996 2 40011 97.5459 294.0549 0024379 147.7472 212.5242 14.87974378639595 DEIMOS-2 1 40013U 14033D 26106.28223238 .00001398 00000+0 13778-3 0 9993 2 40013 97.5924 342.9248 0001950 105.7662 254.3774 14.93554643628484 HODOYOSHI-3 1 40015U 14033F 26106.20727677 .00000744 00000+0 92009-4 0 9992 2 40015 97.6358 271.7684 0032572 196.3219 163.6950 14.85248865638429 SPOT 7 1 40053U 14034A 26106.26629919 -.00000008 00000+0 75483-5 0 9993 2 40053 98.0681 170.3416 0001634 86.4386 273.7002 14.60902871628091 SKYSAT-B 1 40072U 14037D 26105.85384870 .00000743 00000+0 87944-4 0 9994 2 40072 98.3788 61.2948 0006823 114.4616 245.7311 14.87861186636693 WORLDVIEW-3 (WV-3) 1 40115U 14048A 26106.24259820 .00000504 00000+0 65457-4 0 9994 2 40115 97.8585 181.9294 0002497 125.2929 234.8520 14.84918174632711 GAOFEN-2 1 40118U 14049A 26106.28298134 .00000573 00000+0 81179-4 0 9998 2 40118 98.0160 170.5381 0008811 76.6379 283.5815 14.80827679630071 YAOGAN-21 1 40143U 14053A 26106.25789568 .00002270 00000+0 92292-4 0 9998 2 40143 97.1544 149.1727 0006882 320.9658 39.1084 15.25501476645514 YAOGAN-22 1 40275U 14063A 26106.28011550 -.00000018 00000+0 75834-4 0 9999 2 40275 100.7622 256.5463 0005944 334.0787 26.0025 13.15529136551678 ASNARO 1 40298U 14070A 26106.25969135 .00004781 00000+0 22833-3 0 9990 2 40298 97.3476 184.0333 0003773 50.4754 309.6814 15.19495983634602 YAOGAN-24 1 40310U 14072A 26106.33163336 .00000111 00000+0 23767-4 0 9996 2 40310 98.1379 243.1809 0015273 100.9433 259.3496 14.76139379614595 CBERS 4 1 40336U 14079A 26106.28156082 .00000042 00000+0 29163-4 0 9994 2 40336 98.3413 165.0772 0000870 137.1293 222.9961 14.35542600595072 YAOGAN-26 1 40362U 14088A 26106.25956005 .00014942 00000+0 31915-3 0 9994 2 40362 97.0659 108.0310 0001831 272.7472 87.3567 15.44941241628131 SMAP 1 40376U 15003A 26106.26823230 .00000254 00000+0 58129-4 0 9999 2 40376 98.1302 114.2337 0001911 85.4816 274.6604 14.63384072598560 KOMPSAT-3A 1 40536U 15014A 26106.23708964 .00020622 00000+0 33082-3 0 9993 2 40536 97.6893 93.2165 0061732 44.9125 315.7097 15.50879976612202 SENTINEL-2A 1 40697U 15028A 26106.32661530 .00000086 00000+0 49617-4 0 9997 2 40697 98.5636 182.0664 0001345 90.5019 269.6318 14.30820688564885 GAOFEN-8 1 40701U 15030A 26106.29303116 .00008481 00000+0 18929-3 0 9993 2 40701 97.6933 296.0467 0010105 62.6443 297.5832 15.43773864601895 CARBONITE 1 (CBNT-1) 1 40718U 15032D 26106.26328856 .00001223 00000+0 15503-3 0 9990 2 40718 97.6487 286.9373 0015588 133.9854 226.2649 14.83390681580165 YAOGAN-27 1 40878U 15040A 26106.29963171 .00000017 00000+0 15576-3 0 9994 2 40878 100.1133 95.3757 0008348 2.5612 357.5543 13.16068378509529 GAOFEN-9 01 1 40894U 15047A 26106.31801821 .00000541 00000+0 72918-4 0 9991 2 40894 97.6342 144.8078 0026907 346.3492 13.6991 14.82772192571022 YAOGAN-28 1 41026U 15064A 26106.33177411 .00003915 00000+0 15188-3 0 9994 2 41026 97.2975 245.9248 0011880 55.4311 304.8047 15.26628908581248 YAOGAN-29 1 41038U 15069A 26106.30846837 .00000792 00000+0 10408-3 0 9994 2 41038 98.0090 134.8298 0001093 154.2186 205.9082 14.83036366561456 KENT RIDGE 1 1 41167U 15077B 26106.07497465 .00002807 00000+0 85197-4 0 9996 2 41167 14.9808 7.7708 0008319 82.2298 277.8969 15.22751349571619 GAOFEN-4 1 41194U 15083A 26106.11780999 -.00000328 00000+0 00000+0 0 9997 2 41194 0.3462 82.5227 0003038 127.9523 141.9262 1.00273016 37909 JASON-3 1 41240U 16002A 26106.25505709 -.00000054 00000+0 32678-4 0 9997 2 41240 66.0406 256.0399 0007808 275.3345 84.6783 12.87628353479271 SENTINEL-3A 1 41335U 16011A 26106.22174372 .00000053 00000+0 40012-4 0 9996 2 41335 98.6283 174.4843 0001006 93.2241 266.9055 14.26736383529229 ZIYUAN 3-02 (ZY 3-02) 1 41556U 16033A 26106.29682652 .00003418 00000+0 15470-3 0 9994 2 41556 97.3855 183.2519 0014654 149.0722 211.1380 15.21469853548573 CARTOSAT-2C 1 41599U 16040A 26106.27996234 .00001955 00000+0 95814-4 0 9996 2 41599 97.4544 167.0899 0008926 358.0724 2.0475 15.19293689544315 SKYSAT-C1 1 41601U 16040C 26106.05656968 .00005072 00000+0 15031-3 0 9999 2 41601 96.9630 141.1712 0001204 195.1716 164.9493 15.35262784548333 LAPAN-A3 1 41603U 16040E 26106.30733012 .00002319 00000+0 75747-4 0 9997 2 41603 97.1494 104.5085 0008767 230.9495 129.0968 15.32699911545334 GAOFEN-3 1 41727U 16049A 26106.26823410 .00000207 00000+0 76118-4 0 9997 2 41727 98.4037 114.9838 0001400 65.5887 294.5449 14.42225523509722 SKYSAT-C4 1 41771U 16058B 26106.13028993 .00009773 00000+0 19729-3 0 9996 2 41771 96.9233 130.5706 0003492 110.2121 249.9506 15.46689445535877 SKYSAT-C5 1 41772U 16058C 26106.06908065 .00004443 00000+0 13809-3 0 9998 2 41772 97.0541 149.4994 0003588 146.1251 214.0223 15.33824166534222 SKYSAT-C2 1 41773U 16058D 26106.06519914 .00007063 00000+0 17502-3 0 9995 2 41773 97.0225 130.5461 0001115 270.1803 89.9316 15.40687841535483 SKYSAT-C3 1 41774U 16058E 26106.08636292 .00013041 00000+0 23406-3 0 9990 2 41774 96.9110 139.4029 0002460 107.7098 252.4423 15.50013879536480 ALSAT-1B 1 41785U 16059C 26106.25662148 .00000109 00000+0 24662-4 0 9998 2 41785 97.7780 117.6897 0010755 68.4889 291.7465 14.72226110511462 PATHFINDER 1 1 41787U 16059E 26106.23054664 .00000418 00000+0 81379-4 0 9997 2 41787 97.8182 108.3047 0029556 46.0433 314.3203 14.67584930510621 SCATSAT 1 1 41790U 16059H 26105.99085535 .00000706 00000+0 99630-4 0 9993 2 41790 98.1236 169.1089 0056118 88.7967 271.9672 14.79387012 92391 GOKTURK 1A 1 41875U 16073A 26106.27200515 .00000106 00000+0 29998-4 0 9996 2 41875 98.1321 1.8953 0001366 80.3254 279.8103 14.62786286499771 RESOURCESAT-2A 1 41877U 16074A 26106.27500311 -.00000076 00000+0 -14565-4 0 9998 2 41877 98.7552 180.2785 0001066 242.7881 117.3188 14.21614262485501 CARTOSAT-2D 1 41948U 17008A 26105.98369309 -.00000553 00000+0 -23047-4 0 9997 2 41948 97.4166 166.4308 0006067 99.7558 260.4362 15.19304414508133 SENTINEL-2B 1 42063U 17013A 26106.31936828 .00000121 00000+0 62836-4 0 9994 2 42063 98.5663 181.9730 0001245 93.9539 266.1786 14.30821338475794 CARTOSAT-2E 1 42767U 17036C 26106.26445914 -.00000471 00000+0 -19209-4 0 9991 2 42767 97.4335 167.0679 0003674 146.9743 213.1722 15.19232886488743 FORMOSAT-5 1 42920U 17049A 26106.26116150 .00000088 00000+0 33314-4 0 9998 2 42920 98.2265 182.9427 0010136 273.2504 86.7531 14.50874194457692 SENTINEL-5P 1 42969U 17064A 26106.24444699 .00000018 00000+0 29371-4 0 9999 2 42969 98.7930 48.8207 0001284 84.8143 275.3180 14.19508172440776 SKYSAT-C11 1 42987U 17068A 26106.13750437 .00017742 00000+0 26860-3 0 9992 2 42987 97.4269 252.4519 0001141 155.4677 204.6631 15.54728350473599 SKYSAT-C10 1 42988U 17068B 26105.93460482 .00005642 00000+0 17650-3 0 9991 2 42988 97.4405 242.2626 0001327 115.2111 244.9269 15.33542637472818 SKYSAT-C9 1 42989U 17068C 26106.28204301 .00007322 00000+0 18518-3 0 9998 2 42989 97.4329 242.9765 0008407 8.7492 351.3899 15.40050355473226 SKYSAT-C8 1 42990U 17068D 26105.93231030 .00006415 00000+0 18697-3 0 9990 2 42990 97.4422 241.8299 0001095 104.1477 255.9888 15.35731418472756 SKYSAT-C7 1 42991U 17068E 26105.85842691 .00006355 00000+0 18550-3 0 9994 2 42991 97.4434 242.7409 0005284 341.0230 19.0816 15.35675905472800 SKYSAT-C6 1 42992U 17068F 26106.30137420 .00005676 00000+0 17855-3 0 9995 2 42992 97.4470 243.3602 0002657 33.0243 327.1164 15.33363564472831 CARTOSAT-2F 1 43111U 18004A 26106.29602339 .00002828 00000+0 13712-3 0 9998 2 43111 97.4096 166.7616 0002576 116.6229 243.5270 15.19317591457930 GAOFEN-1 02 1 43259U 18031A 26106.28820593 .00000177 00000+0 32912-4 0 9993 2 43259 98.0580 168.9728 0002704 179.1898 180.9317 14.76431344433569 GAOFEN-1 03 1 43260U 18031B 26106.33402773 .00000414 00000+0 66955-4 0 9995 2 43260 98.0564 168.8836 0001045 269.1487 90.9603 14.76418578433565 GAOFEN-1 04 1 43262U 18031D 26106.30991233 -.00000198 00000+0 -21020-4 0 9993 2 43262 98.0581 169.0422 0000800 64.7830 295.3462 14.76451296433556 SENTINEL-3B 1 43437U 18039A 26106.19486381 .00000062 00000+0 43674-4 0 9992 2 43437 98.6280 174.6058 0001660 100.7302 259.4065 14.26730966415288 GAOFEN-5 01 1 43461U 18043A 26106.20062257 .00000198 00000+0 50763-4 0 9995 2 43461 98.4527 76.5048 0000505 282.2809 77.8334 14.60561302422644 GAOFEN-6 1 43484U 18048A 26106.26960185 .00000196 00000+0 35100-4 0 9994 2 43484 97.7809 171.2089 0012595 22.4766 337.6993 14.76556982424252 GAOFEN-11 01 1 43585U 18063A 26106.30666025 .00009526 00000+0 15149-3 0 9990 2 43585 97.1345 173.4288 0004094 175.8894 184.2395 15.53505603430730 ICESAT-2 1 43613U 18070A 26106.21189911 .00001872 00000+0 67879-4 0 9998 2 43613 92.0008 274.2659 0003230 61.1798 298.9776 15.28262310422997 HYSIS 1 43719U 18096A 26106.29322671 .00000794 00000+0 11542-3 0 9990 2 43719 97.9883 173.5138 0001105 65.7732 294.3594 14.78651164398273 KAZSTSAT 1 43783U 18099AB 26105.65004866 .00001282 00000+0 10827-3 0 9994 2 43783 97.4378 140.3963 0003067 231.9654 128.1294 14.99749922401937 SAUDISAT 5A 1 43831U 18102A 26106.33352108 .00003156 00000+0 12019-3 0 9991 2 43831 97.3120 169.1190 0009519 3.6591 356.4716 15.27420077406230 SAUDISAT 5B 1 43833U 18102C 26106.29795319 .00003157 00000+0 11916-3 0 9999 2 43833 97.3222 172.0425 0010309 5.4108 354.7241 15.27709026406342 GAOFEN-10R 1 44622U 19066A 26106.28156747 .00000686 00000+0 91337-4 0 9991 2 44622 98.0452 59.4342 0005373 354.3223 5.7928 14.82919814353206 CARTOSAT-3 1 44804U 19081A 26106.24546552 .00001733 00000+0 85422-4 0 9995 2 44804 97.4361 169.0902 0012293 14.2358 345.9220 15.19225254354068 GAOFEN-12 01 1 44819U 19082A 26106.30326076 .00000210 00000+0 34147-4 0 9993 2 44819 97.8127 114.3139 0000893 126.0791 234.0504 14.80407469344934 CSG-1 1 44873U 19092A 26106.27919704 .00000242 00000+0 36933-4 0 9996 2 44873 97.8886 290.7764 0001222 88.7483 271.3870 14.82161742342300 NEMO-HD 1 46277U 20061F 26106.23489215 .00006047 00000+0 13751-3 0 9990 2 46277 97.1975 168.8545 0000883 119.0704 241.0633 15.43359972312423 SENTINEL-6A 1 46984U 20086A 26106.17128936 -.00000068 00000+0 -31162-4 0 9991 2 46984 66.0403 263.8594 0007737 270.5025 89.5104 12.80930910252384 GAOFEN-12 02 1 48079U 21026A 26106.30776416 .00000201 00000+0 33318-4 0 9992 2 48079 97.9928 104.7456 0006277 78.8597 281.3321 14.80245633272600 PLEIADES NEO 3 1 48268U 21034A 26106.32587642 -.00000332 00000+0 -35639-4 0 9999 2 48268 97.8936 181.9806 0001328 94.8853 265.2511 14.81672654268491 PLEIADES NEO 4 1 49070U 21073E 26106.29211441 -.00000357 00000+0 -38736-4 0 9999 2 49070 97.8935 181.9428 0001262 97.1129 263.0227 14.81673498252200 LANDSAT 9 1 49260U 21088A 26106.18822897 .00000196 00000+0 53563-4 0 9991 2 49260 98.1881 177.3565 0001135 101.6405 258.4921 14.57114100241977 CSG-2 1 51444U 22008A 26106.31295712 -.00000430 00000+0 -47523-4 0 9998 2 51444 97.8881 290.8062 0001367 84.6888 275.4481 14.82155589227423 GAOFEN-12 03 1 52912U 22069A 26106.25787558 .00000792 00000+0 11161-3 0 9990 2 52912 97.8360 355.6694 0001763 50.9935 309.1434 14.79934717205452 SWOT 1 54754U 22173A 26106.25179981 .00000007 00000+0 64120-5 0 9991 2 54754 77.6076 118.9193 0000721 177.5934 182.5221 14.00169459170488 GAOFEN-12 04 1 57654U 23123A 26106.28229238 .00000592 00000+0 84906-4 0 9995 2 57654 97.9130 25.1930 0001248 83.6937 276.4418 14.80106867143471 PARS 1 1 59065U 24039Q 26106.27051767 .00006871 00000+0 15035-3 0 9991 2 59065 97.4792 85.3164 0008985 352.5826 7.5288 15.44438623119082 RESURS-P 4 1 59371U 24061A 26106.27594873 .00002081 00000+0 67176-4 0 9999 2 59371 97.2707 55.2893 0001221 123.6130 236.5229 15.33240063114285 LEGION 1 1 59625U 24081A 26106.21130952 .00002346 00000+0 12313-3 0 9997 2 59625 97.5032 184.7214 0008879 228.9661 131.0805 15.16691987108143 LEGION 2 1 59626U 24081B 26106.24639681 .00002252 00000+0 11756-3 0 9990 2 59626 97.5032 184.8420 0010371 199.1705 160.9139 15.16919685108152 ALOS-4 (DAICHI-4) 1 60182U 24123A 26106.27443404 .00000783 00000+0 11171-3 0 9993 2 60182 97.9199 204.3284 0001596 99.0876 261.0516 14.79479601 96729 LEGION 3 1 60452U 24146A 26106.18187306 .00002406 00000+0 13951-3 0 9996 2 60452 45.0032 2.9779 0009135 174.5687 185.5292 15.15242794 92613 LEGION 4 1 60453U 24146B 26106.24599976 .00002572 00000+0 14689-3 0 9997 2 60453 45.0009 94.4823 0015046 322.9497 37.0341 15.15521328 91472 SENTINEL-2C 1 60989U 24157A 26106.14456466 .00000054 00000+0 37312-4 0 9990 2 60989 98.5640 181.8152 0001376 108.1085 252.0248 14.30813706 84112 IONOSFERA-M 1 1 61735U 24199A 26106.23639390 .00000023 00000+0 29743-4 0 9990 2 61735 98.7261 340.0358 0000994 26.7732 333.3497 14.22742531118899 IONOSFERA-M 2 1 61736U 24199B 26106.27082607 .00000017 00000+0 27295-4 0 9991 2 61736 98.7259 339.9811 0001739 109.9347 250.2019 14.22745334122023 BIOMASS 1 63772U 25090A 26106.25837431 .00000738 00000+0 14032-3 0 9999 2 63772 98.0750 294.4718 0001220 88.6074 271.5270 14.66974271 51602 GOSAT-GW (IBUKI GW) 1 64694U 25141A 26106.28141385 -.00000156 00000+0 -19162-4 0 9995 2 64694 98.0540 44.6158 0001378 85.3086 274.8276 14.67556680 42767 IONOSFERA-M 3 1 64876U 25155A 26106.30349201 .00000027 00000+0 31710-4 0 9990 2 64876 98.5979 69.7842 0002289 60.5316 299.6090 14.21475446 37618 IONOSFERA-M 4 1 64877U 25155B 26106.26803251 .00000018 00000+0 27762-4 0 9998 2 64877 98.5978 69.6677 0001659 64.3032 295.8317 14.21477327 37609 MICROCARB 1 64899U 25156A 26106.16816786 .00000332 00000+0 60338-4 0 9994 2 64899 97.9842 184.4115 0017747 109.4422 250.8705 14.72258936 38846 CO3D 3 1 64900U 25156B 26106.24840169 .00002498 00000+0 11846-3 0 9992 2 64900 97.4328 185.8309 0001574 62.2361 297.9034 15.20205857 40121 CO3D 4 1 64901U 25156C 26106.11690841 .00000800 00000+0 40081-4 0 9998 2 64901 97.4328 185.7015 0001762 115.7581 244.3837 15.20193986 40106 CO3D 2 1 64902U 25156D 26106.28103414 .00002438 00000+0 11568-3 0 9998 2 64902 97.4329 185.7619 0001022 54.7843 305.3488 15.20204958 40124 CO3D 1 1 64903U 25156E 26103.64843334 .00003151 00000+0 12932-3 0 9997 2 64903 98.0928 182.3847 0110033 5.8142 354.4339 15.19681462 39726 SENTINEL-6B 1 66514U 25264A 26106.17163241 -.00000067 00000+0 -24009-4 0 9994 2 66514 66.0403 263.9848 0007902 269.9610 90.0499 12.80930777 19223 CSG-3 1 67304U 26001A 26106.22436600 .00000187 00000+0 30041-4 0 9994 2 67304 97.8885 290.7219 0001378 86.2261 273.9109 14.82148548 15283